User: anonymous   Login
Location: Paris
(48.6709°N, 2.3750°E)
Time: 11:37:50
(UTC+02:00)
Language:

CUBEBUG 2 - Orbit

View from above orbital plane
View from above orbital plane
View from above satellite
View from above satellite

Ground track
Ground track

The orbit data is extracted from the following two-line orbital elements,

1 39440U 13066AA  22179.83688825  .00000958  00000-0  13582-3 0  9999
2 39440  97.7266 136.9152 0080342  94.3925 266.6470 14.77031569461965
Epoch (UTC): 28 June 2022 20:05:07
Eccentricity: 0.0080342
inclination: 97.7266°
perigee height: 582 km
apogee height: 695 km
right ascension of ascending node: 136.9152°
argument of perigee: 94.3925°
revolutions per day: 14.77031569
mean anomaly at epoch: 266.6470°
orbit number at epoch: 46196

The dashed part of the orbit path shows where the satellite is in the earth's shadow,  

DLR